Location: The Rolnick Observatory
(41.1711°N, 73.3275°W)
Time: 22:37:53
(UTC-04:00)

Envisat - Pass Details

Date: 21 February 2019
Orbit: 764 x 766 km, 98.2° (Epoch: 18 March)

Event Time Altitude Azimuth Distance (km) Brightness Sun altitude
Rises 18:13:09 0° 156° (SSE) 3,219 6.1 -8.0°
Reaches altitude 10° 18:15:28 10° 153° (SSE) 2,297 5.3 -8.4°
Maximum altitude 18:20:27 62° 74° (ENE) 860 3.0 -9.3°
Drops below altitude 10° 18:25:29 10° 354° (N) 2,312 5.5 -10.3°
Sets 18:27:49 0° 351° (N) 3,242 6.3 -10.7°
